This is the latest recevied weather packets stored in our database for station/object W8AN. If no packets are shown the sender has not sent any weather packets the latest 10 day(s).
| Time | Temp. | Humidity | Pressure | Rain* | Wind** | Luminosity | Snow |
|---|---|---|---|---|---|---|---|
| 1778204691 | 8.89° C | 71% | 4267.7 hPa | 0 mm | - | 0 W/m² | - |
| 1778204387 | 9.44° C | 72% | 4267.7 hPa | 0 mm | - | 0 W/m² | - |
| 1778204083 | 9.44° C | 70% | 4267.8 hPa | 0 mm | - | 0 W/m² | - |
| 1778203781 | 9.44° C | 68% | 4267.7 hPa | 0 mm | - | 0 W/m² | - |
| 1778203478 | 9.44° C | 67% | 4267.7 hPa | 0 mm | - | 0 W/m² | - |
| 1778203175 | 10° C | 66% | 4267.6 hPa | 0 mm | - | 0 W/m² | - |
| 1778202873 | 10° C | 64% | 4267.8 hPa | 0 mm | - | 0 W/m² | - |
| 1778202570 | 10° C | 63% | 4267.6 hPa | 0 mm | - | 0 W/m² | - |
| 1778202267 | 10.56° C | 61% | 4267.6 hPa | 0 mm | - | 0 W/m² | - |
| 1778201964 | 10.56° C | 60% | 4267.9 hPa | 0 mm | - | 0 W/m² | - |
| 1778201661 | 10.56° C | 60% | 4267.9 hPa | 0 mm | - | 0 W/m² | - |
| 1778201357 | 10.56° C | 58% | 4267.8 hPa | 0 mm | - | 0 W/m² | - |
| 1778201054 | 11.11° C | 57% | 4267.6 hPa | 0 mm | - | 0 W/m² | - |
| 1778200751 | 11.11° C | 56% | 4267.8 hPa | 0 mm | - | 1 W/m² | - |
| 1778200447 | 11.67° C | 53% | 4267.6 hPa | 0 mm | - | 3 W/m² | - |
| 1778200145 | 11.67° C | 53% | 4267.5 hPa | 0 mm | - | 5 W/m² | - |
| 1778199841 | 11.67° C | 52% | 4267.5 hPa | 0 mm | - | 9 W/m² | - |
| 1778199537 | 12.22° C | 49% | 4267.4 hPa | 0 mm | - | 13 W/m² | - |
| 1778199233 | 12.22° C | 49% | 4267.4 hPa | 0 mm | - | 20 W/m² | - |
| 1778198930 | 12.22° C | 47% | 4267.2 hPa | 0 mm | - | 12 W/m² | - |
| 1778198626 | 12.22° C | 46% | 4267.2 hPa | 0 mm | - | 14 W/m² | - |
| 1778198323 | 12.78° C | 46% | 4267.3 hPa | 0 mm | - | 20 W/m² | - |
| 1778198021 | 12.78° C | 43% | 4267.1 hPa | 0 mm | - | 31 W/m² | - |
| 1778197718 | 12.78° C | 43% | 4267.2 hPa | 0 mm | - | 30 W/m² | - |
| 1778197414 | 13.33° C | 40% | 4266.8 hPa | 0 mm | - | 31 W/m² | - |
* Rain latest hour (hover to see other rain measurements)
** Current wind speed in m/s (hover to see current wind gust speed)